QPF
0.00 0.00 0.00 0.00 0.00 0.00 0.00 0.00 0.00 0.00 0.00 0.00 0.00 0.00 0.00 0.00 0.00 0.00 0.00 0.00 0.00 0.00 0.00 0.00 0.00 0.00 0.00 0.00 0.00 0.00 0.00 0.01 0.01 0.01 0.01 0.01 0.01 0.03 0.04 0.04 0.04 0.05 0.06 0.05
0.00 0.00 0.00 0.00 0.00 0.00 0.00 0.00 0.00 0.00 0.00 0.00 0.00 0.00 0.00 0.00 0.00 0.00 0.00 0.01 0.01 0.00 0.00 0.01 0.01 0.00 0.00 0.00 0.00 0.00 0.01 0.02 0.02 0.02 0.02 0.02 0.02 0.03 0.04 0.05 0.06 0.06 0.06 0.06
0.00 0.00 0.00 0.00 0.00 0.00 0.00 0.00 0.00 0.00 0.00 0.00 0.00 0.00 0.00 0.00 0.00 0.00 0.00 0.01 0.01 0.01 0.01 0.01 0.01 0.00 0.00 0.00 0.01 0.01 0.01 0.01 0.01 0.02 0.02 0.03 0.04 0.04 0.04 0.04 0.04 0.04 0.05 0.07
0.00 0.00 0.00 0.00 0.00 0.00 0.00 0.00 0.00 0.00 0.00 0.00 0.00 0.00 0.00 0.00 0.00 0.00 0.00 0.00 0.00 0.00 0.01 0.01 0.01 0.01 0.00 0.01 0.01 0.01 0.03 0.04 0.03 0.03 0.04 0.06 0.07 0.06 0.04 0.04 0.04 0.04 0.05 0.06
0.00 0.00 0.00 0.00 0.00 0.00 0.00 0.00 0.00 0.00 0.00 0.00 0.00 0.00 0.00 0.00 0.00 0.00 0.00 0.00 0.00 0.01 0.01 0.01 0.01 0.01 0.01 0.02 0.01 0.02 0.02 0.03 0.03 0.03 0.04 0.06 0.06 0.04 0.03 0.02 0.02 0.02 0.03 0.04
0.00 0.00 0.00 0.00 0.00 0.00 0.00 0.00 0.00 0.00 0.00 0.00 0.00 0.00 0.00 0.00 0.00 0.00 0.00 0.00 0.01 0.01 0.01 0.02 0.02 0.03 0.02 0.02 0.02 0.02 0.02 0.03 0.03 0.04 0.04 0.05 0.04 0.03 0.02 0.01 0.01 0.01 0.01 0.01
0.00 0.00 0.00 0.00 0.00 0.00 0.00 0.00 0.00 0.00 0.00 0.00 0.01 0.00 0.01 0.01 0.01 0.01 0.01 0.01 0.01 0.02 0.03 0.03 0.04 0.03 0.03 0.04 0.03 0.03 0.02 0.02 0.02 0.02 0.03 0.03 0.03 0.02 0.02 0.02 0.02 0.02 0.02 0.01
0.00 0.00 0.00 0.00 0.00 0.00 0.00 0.01 0.01 0.01 0.01 0.01 0.01 0.01 0.01 0.01 0.02 0.03 0.02 0.02 0.03 0.04 0.05 0.06 0.05 0.05 0.06 0.06 0.04 0.03 0.03 0.03 0.03 0.02 0.03 0.04 0.04 0.03 0.03 0.03 0.03 0.03 0.02 0.02
0.00 0.00 0.00 0.00 0.00 0.01 0.01 0.01 0.01 0.01 0.01 0.01 0.01 0.02 0.03 0.03 0.03 0.04 0.04 0.05 0.06 0.06 0.06 0.07 0.07 0.07 0.06 0.05 0.05 0.05 0.05 0.05 0.05 0.04 0.04 0.05 0.05 0.06 0.05 0.04 0.04 0.04 0.03 0.03
0.00 0.01 0.01 0.01 0.01 0.01 0.01 0.01 0.01 0.02 0.02 0.02 0.02 0.02 0.04 0.06 0.06 0.06 0.07 0.07 0.07 0.07 0.07 0.07 0.07 0.08 0.07 0.08 0.08 0.08 0.08 0.08 0.09 0.09 0.08 0.07 0.07 0.06 0.05 0.05 0.05 0.05 0.04 0.04
0.01 0.01 0.02 0.02 0.02 0.01 0.01 0.01 0.01 0.02 0.02 0.02 0.03 0.03 0.04 0.06 0.07 0.08 0.07 0.07 0.08 0.11 0.10 0.07 0.07 0.09 0.10 0.10 0.10 0.10 0.10 0.10 0.12 0.12 0.10 0.10 0.10 0.07 0.06 0.06 0.06 0.06 0.05 0.05
0.01 0.01 0.02 0.02 0.02 0.02 0.01 0.02 0.02 0.01 0.02 0.03 0.04 0.04 0.05 0.05 0.06 0.07 0.08 0.08 0.08 0.10 0.11 0.07 0.06 0.09 0.10 0.09 0.09 0.10 0.10 0.09 0.08 0.08 0.07 0.08 0.08 0.07 0.07 0.05 0.06 0.06 0.05 0.05
0.02 0.02 0.02 0.03 0.02 0.02 0.02 0.02 0.03 0.03 0.02 0.03 0.05 0.09 0.07 0.06 0.05 0.05 0.06 0.07 0.07 0.08 0.08 0.08 0.09 0.12 0.12 0.10 0.09 0.09 0.08 0.06 0.06 0.08 0.08 0.08 0.07 0.06 0.05 0.04 0.04 0.04 0.05 0.05
0.02 0.03 0.05 0.04 0.04 0.03 0.03 0.03 0.04 0.06 0.06 0.06 0.07 0.11 0.11 0.08 0.07 0.09 0.10 0.08 0.07 0.07 0.07 0.07 0.08 0.12 0.13 0.12 0.10 0.08 0.07 0.06 0.06 0.05 0.06 0.06 0.06 0.06 0.05 0.04 0.03 0.03 0.03 0.03
0.02 0.02 0.04 0.04 0.05 0.06 0.04 0.04 0.05 0.07 0.08 0.08 0.08 0.09 0.10 0.09 0.08 0.08 0.09 0.08 0.07 0.06 0.06 0.05 0.04 0.04 0.04 0.05 0.06 0.06 0.05 0.05 0.04 0.05 0.05 0.04 0.04 0.04 0.04 0.04 0.03 0.03 0.03 0.02
0.02 0.02 0.01 0.03 0.05 0.06 0.07 0.07 0.08 0.09 0.09 0.07 0.06 0.07 0.07 0.06 0.07 0.07 0.06 0.05 0.05 0.04 0.03 0.02 0.01 0.01 0.01 0.02 0.03 0.03 0.03 0.03 0.03 0.03 0.04 0.04 0.03 0.03 0.03 0.04 0.04 0.05 0.05 0.04
0.01 0.01 0.01 0.01 0.02 0.05 0.07 0.08 0.09 0.11 0.13 0.13 0.11 0.08 0.07 0.07 0.06 0.05 0.04 0.03 0.02 0.02 0.01 0.01 0.01 0.01 0.01 0.01 0.01 0.02 0.01 0.01 0.02 0.02 0.01 0.02 0.02 0.02 0.02 0.02 0.02 0.02 0.03 0.03
0.00 0.00 0.01 0.01 0.01 0.02 0.02 0.03 0.04 0.06 0.10 0.15 0.15 0.13 0.09 0.07 0.06 0.05 0.04 0.03 0.02 0.01 0.01 0.01 0.01 0.01 0.01 0.01 0.01 0.02 0.01 0.01 0.01 0.01 0.01 0.01 0.01 0.01 0.01 0.01 0.01 0.01 0.01 0.02
0.01 0.00 0.01 0.01 0.01 0.01 0.01 0.01 0.02 0.02 0.05 0.08 0.09 0.10 0.10 0.09 0.07 0.06 0.04 0.03 0.02 0.01 0.01 0.01 0.01 0.01 0.02 0.02 0.02 0.02 0.02 0.02 0.02 0.02 0.02 0.02 0.03 0.02 0.02 0.01 0.01 0.01 0.01 0.01
0.01 0.01 0.01 0.00 0.01 0.01 0.01 0.01 0.01 0.01 0.03 0.04 0.05 0.05 0.05 0.05 0.05 0.05 0.04 0.04 0.02 0.01 0.01 0.01 0.01 0.01 0.01 0.02 0.02 0.02 0.02 0.02 0.02 0.02 0.02 0.02 0.02 0.02 0.02 0.02 0.02 0.01 0.01 0.02
0.02 0.01 0.01 0.01 0.01 0.02 0.01 0.01 0.01 0.02 0.03 0.03 0.04 0.04 0.03 0.03 0.03 0.03 0.03 0.03 0.02 0.02 0.01 0.02 0.01 0.01 0.01 0.01 0.01 0.01 0.02 0.02 0.02 0.01 0.01 0.01 0.01 0.01 0.02 0.02 0.02 0.03 0.03 0.02
0.02 0.02 0.01 0.02 0.02 0.01 0.02 0.02 0.02 0.02 0.02 0.02 0.03 0.03 0.03 0.03 0.03 0.03 0.03 0.04 0.05 0.05 0.03 0.02 0.02 0.02 0.02 0.02 0.02 0.02 0.03 0.03 0.02 0.02 0.02 0.02 0.01 0.01 0.01 0.01 0.01 0.02 0.02 0.03
0.01 0.02 0.03 0.03 0.02 0.01 0.01 0.02 0.02 0.02 0.02 0.02 0.03 0.04 0.04 0.04 0.04 0.05 0.05 0.04 0.04 0.05 0.04 0.03 0.02 0.02 0.02 0.02 0.02 0.02 0.03 0.03 0.03 0.02 0.02 0.02 0.01 0.01 0.01 0.01 0.01 0.01 0.01 0.02
0.03 0.03 0.05 0.04 0.02 0.02 0.01 0.02 0.02 0.02 0.03 0.03 0.03 0.04 0.04 0.04 0.03 0.05 0.06 0.06 0.05 0.04 0.03 0.02 0.02 0.02 0.01 0.01 0.00 0.01 0.01 0.01 0.01 0.01 0.01 0.01 0.01 0.01 0.01 0.02 0.02 0.02 0.02 0.02
0.04 0.05 0.05 0.05 0.04 0.02 0.02 0.03 0.03 0.03 0.04 0.05 0.05 0.04 0.03 0.03 0.04 0.06 0.06 0.04 0.03 0.02 0.01 0.01 0.01 0.01 0.01 0.00 0.00 0.00 0.00 0.01 0.01 0.01 0.01 0.01 0.01 0.02 0.02 0.02 0.01 0.02 0.02 0.02
0.07 0.07 0.08 0.08 0.08 0.05 0.03 0.05 0.06 0.07 0.06 0.05 0.04 0.04 0.03 0.03 0.03 0.04 0.04 0.04 0.04 0.02 0.01 0.01 0.01 0.01 0.01 0.01 0.01 0.01 0.01 0.01 0.01 0.01 0.01 0.02 0.02 0.01 0.01 0.01 0.01 0.01 0.01 0.01
0.08 0.07 0.07 0.07 0.07 0.05 0.05 0.06 0.08 0.10 0.12 0.09 0.07 0.05 0.03 0.02 0.02 0.02 0.02 0.03 0.03 0.03 0.02 0.01 0.01 0.01 0.01 0.01 0.01 0.01 0.01 0.01 0.01 0.01 0.01 0.01 0.01 0.01 0.01 0.01 0.01 0.01 0.01 0.01
MSLP
1013.66 1014.15 1014.68 1015.21 1015.70 1016.08 1016.30 1016.31 1016.09 1015.64 1015.02 1014.29 1013.52 1012.80 1012.21 1011.78 1011.54 1011.46 1011.53 1011.67 1011.85 1012.02 1012.17 1012.30 1012.42 1012.55 1012.74 1012.99 1013.32 1013.71 1014.13 1014.55 1014.93 1015.23 1015.44 1015.56 1015.60 1015.58 1015.54 1015.51 1015.49 1015.51 1015.57 1015.65
1013.64 1014.05 1014.44 1014.80 1015.08 1015.25 1015.28 1015.15 1014.87 1014.43 1013.89 1013.29 1012.70 1012.16 1011.74 1011.44 1011.27 1011.22 1011.26 1011.34 1011.44 1011.53 1011.61 1011.68 1011.77 1011.90 1012.09 1012.37 1012.72 1013.13 1013.57 1014.00 1014.40 1014.73 1014.98 1015.15 1015.24 1015.29 1015.31 1015.33 1015.36 1015.41 1015.48 1015.57
1013.78 1014.11 1014.38 1014.57 1014.67 1014.66 1014.53 1014.28 1013.93 1013.49 1013.00 1012.50 1012.03 1011.61 1011.29 1011.06 1010.92 1010.86 1010.84 1010.85 1010.86 1010.87 1010.88 1010.90 1010.96 1011.07 1011.27 1011.55 1011.92 1012.34 1012.79 1013.24 1013.66 1014.03 1014.34 1014.57 1014.75 1014.88 1014.99 1015.09 1015.18 1015.29 1015.39 1015.50
1014.11 1014.35 1014.50 1014.55 1014.50 1014.34 1014.08 1013.74 1013.33 1012.88 1012.41 1011.96 1011.55 1011.20 1010.92 1010.72 1010.57 1010.46 1010.38 1010.31 1010.24 1010.17 1010.12 1010.09 1010.11 1010.21 1010.39 1010.66 1011.01 1011.43 1011.88 1012.33 1012.78 1013.19 1013.55 1013.86 1014.14 1014.37 1014.59 1014.79 1014.98 1015.15 1015.31 1015.45
1014.57 1014.71 1014.75 1014.68 1014.51 1014.24 1013.89 1013.47 1013.01 1012.55 1012.08 1011.65 1011.27 1010.95 1010.68 1010.47 1010.30 1010.15 1010.01 1009.87 1009.74 1009.61 1009.50 1009.42 1009.41 1009.47 1009.61 1009.84 1010.16 1010.53 1010.96 1011.40 1011.86 1012.30 1012.72 1013.12 1013.49 1013.84 1014.18 1014.49 1014.77 1015.03 1015.24 1015.42
1015.03 1015.09 1015.04 1014.88 1014.61 1014.26 1013.85 1013.38 1012.90 1012.42 1011.96 1011.54 1011.17 1010.85 1010.59 1010.36 1010.17 1009.99 1009.81 1009.64 1009.46 1009.30 1009.15 1009.04 1008.98 1008.98 1009.07 1009.24 1009.48 1009.80 1010.18 1010.59 1011.04 1011.51 1011.98 1012.46 1012.93 1013.39 1013.83 1014.25 1014.63 1014.97 1015.24 1015.46
1015.39 1015.36 1015.23 1015.01 1014.69 1014.30 1013.85 1013.37 1012.88 1012.41 1011.95 1011.54 1011.19 1010.88 1010.62 1010.40 1010.21 1010.03 1009.85 1009.67 1009.49 1009.31 1009.14 1009.00 1008.89 1008.84 1008.86 1008.95 1009.11 1009.35 1009.66 1010.03 1010.46 1010.94 1011.45 1012.00 1012.55 1013.11 1013.65 1014.16 1014.62 1015.02 1015.35 1015.60
1015.55 1015.45 1015.26 1015.00 1014.66 1014.26 1013.82 1013.35 1012.88 1012.43 1012.00 1011.62 1011.28 1011.00 1010.77 1010.57 1010.41 1010.26 1010.12 1009.97 1009.81 1009.64 1009.48 1009.31 1009.17 1009.06 1009.00 1009.00 1009.08 1009.23 1009.48 1009.80 1010.21 1010.69 1011.24 1011.83 1012.45 1013.08 1013.70 1014.27 1014.79 1015.24 1015.60 1015.87
1015.48 1015.32 1015.09 1014.81 1014.48 1014.10 1013.70 1013.27 1012.85 1012.44 1012.05 1011.71 1011.41 1011.17 1010.98 1010.84 1010.73 1010.64 1010.55 1010.46 1010.35 1010.22 1010.07 1009.91 1009.74 1009.58 1009.45 1009.38 1009.38 1009.46 1009.64 1009.93 1010.32 1010.80 1011.37 1012.00 1012.66 1013.34 1014.00 1014.61 1015.16 1015.62 1015.99 1016.27
1015.22 1015.01 1014.77 1014.49 1014.18 1013.85 1013.50 1013.14 1012.77 1012.42 1012.09 1011.80 1011.55 1011.37 1011.23 1011.15 1011.11 1011.09 1011.08 1011.06 1011.02 1010.94 1010.82 1010.67 1010.48 1010.30 1010.13 1010.00 1009.94 1009.97 1010.12 1010.37 1010.75 1011.24 1011.83 1012.48 1013.18 1013.87 1014.54 1015.16 1015.71 1016.16 1016.52 1016.78
1014.85 1014.61 1014.36 1014.11 1013.84 1013.57 1013.28 1012.99 1012.69 1012.40 1012.12 1011.88 1011.69 1011.55 1011.47 1011.45 1011.47 1011.53 1011.60 1011.66 1011.69 1011.66 1011.59 1011.46 1011.29 1011.09 1010.90 1010.75 1010.67 1010.68 1010.81 1011.07 1011.45 1011.96 1012.56 1013.22 1013.92 1014.61 1015.27 1015.86 1016.37 1016.79 1017.11 1017.34
1014.49 1014.24 1014.00 1013.77 1013.55 1013.33 1013.11 1012.88 1012.64 1012.39 1012.16 1011.96 1011.81 1011.71 1011.67 1011.70 1011.78 1011.90 1012.04 1012.17 1012.26 1012.29 1012.27 1012.18 1012.03 1011.86 1011.68 1011.54 1011.46 1011.49 1011.63 1011.91 1012.31 1012.83 1013.44 1014.10 1014.79 1015.46 1016.07 1016.62 1017.08 1017.44 1017.71 1017.90
1014.24 1013.98 1013.76 1013.56 1013.38 1013.21 1013.03 1012.84 1012.64 1012.43 1012.23 1012.05 1011.91 1011.83 1011.81 1011.87 1011.99 1012.16 1012.35 1012.53 1012.68 1012.78 1012.80 1012.76 1012.66 1012.52 1012.38 1012.27 1012.23 1012.29 1012.47 1012.78 1013.21 1013.74 1014.36 1015.01 1015.67 1016.29 1016.86 1017.34 1017.73 1018.02 1018.23 1018.37
1014.15 1013.90 1013.69 1013.51 1013.36 1013.22 1013.07 1012.90 1012.71 1012.51 1012.31 1012.12 1011.98 1011.90 1011.90 1011.97 1012.11 1012.31 1012.53 1012.76 1012.96 1013.10 1013.18 1013.20 1013.15 1013.07 1012.98 1012.93 1012.94 1013.04 1013.26 1013.61 1014.06 1014.60 1015.21 1015.84 1016.46 1017.02 1017.52 1017.93 1018.24 1018.46 1018.60 1018.69
1014.23 1013.98 1013.79 1013.62 1013.48 1013.35 1013.20 1013.02 1012.82 1012.60 1012.38 1012.18 1012.02 1011.93 1011.92 1011.99 1012.14 1012.35 1012.60 1012.87 1013.11 1013.31 1013.44 1013.51 1013.52 1013.50 1013.48 1013.48 1013.55 1013.70 1013.96 1014.33 1014.79 1015.33 1015.91 1016.50 1017.07 1017.57 1017.99 1018.32 1018.56 1018.71 1018.79 1018.83
1014.44 1014.20 1014.01 1013.85 1013.70 1013.55 1013.37 1013.17 1012.94 1012.69 1012.44 1012.20 1012.02 1011.91 1011.88 1011.95 1012.11 1012.33 1012.61 1012.90 1013.19 1013.43 1013.62 1013.74 1013.82 1013.86 1013.89 1013.95 1014.06 1014.25 1014.53 1014.91 1015.36 1015.87 1016.42 1016.96 1017.46 1017.89 1018.24 1018.49 1018.66 1018.75 1018.79 1018.79
1014.73 1014.50 1014.30 1014.12 1013.95 1013.76 1013.55 1013.30 1013.02 1012.73 1012.44 1012.18 1011.97 1011.84 1011.81 1011.87 1012.04 1012.28 1012.58 1012.91 1013.23 1013.51 1013.75 1013.94 1014.07 1014.16 1014.24 1014.34 1014.48 1014.69 1014.97 1015.33 1015.76 1016.23 1016.71 1017.19 1017.62 1017.98 1018.26 1018.45 1018.57 1018.62 1018.62 1018.58
1015.04 1014.81 1014.60 1014.40 1014.18 1013.95 1013.68 1013.38 1013.06 1012.72 1012.39 1012.10 1011.88 1011.74 1011.71 1011.78 1011.96 1012.22 1012.55 1012.91 1013.26 1013.59 1013.88 1014.11 1014.28 1014.42 1014.54 1014.66 1014.82 1015.02 1015.29 1015.61 1015.99 1016.40 1016.82 1017.22 1017.58 1017.88 1018.11 1018.26 1018.33 1018.35 1018.33 1018.29
1015.34 1015.11 1014.88 1014.63 1014.37 1014.09 1013.76 1013.41 1013.04 1012.66 1012.31 1012.00 1011.77 1011.64 1011.61 1011.70 1011.90 1012.18 1012.53 1012.92 1013.31 1013.68 1014.00 1014.26 1014.48 1014.64 1014.79 1014.92 1015.07 1015.26 1015.49 1015.77 1016.08 1016.43 1016.78 1017.12 1017.42 1017.66 1017.85 1017.97 1018.03 1018.05 1018.02 1017.98
1015.61 1015.37 1015.12 1014.84 1014.53 1014.19 1013.82 1013.42 1013.01 1012.60 1012.23 1011.92 1011.69 1011.56 1011.55 1011.66 1011.87 1012.18 1012.55 1012.95 1013.37 1013.76 1014.10 1014.40 1014.64 1014.83 1014.98 1015.12 1015.26 1015.42 1015.62 1015.84 1016.10 1016.39 1016.68 1016.96 1017.21 1017.42 1017.59 1017.70 1017.76 1017.79 1017.78 1017.75
1015.86 1015.62 1015.34 1015.03 1014.68 1014.30 1013.88 1013.44 1013.00 1012.58 1012.20 1011.89 1011.67 1011.55 1011.56 1011.68 1011.90 1012.22 1012.60 1013.01 1013.43 1013.83 1014.20 1014.51 1014.76 1014.97 1015.13 1015.27 1015.40 1015.55 1015.71 1015.90 1016.11 1016.35 1016.59 1016.83 1017.05 1017.25 1017.41 1017.53 1017.62 1017.67 1017.69 1017.68
1016.11 1015.86 1015.57 1015.23 1014.85 1014.43 1013.99 1013.53 1013.08 1012.65 1012.27 1011.96 1011.75 1011.65 1011.66 1011.78 1012.01 1012.32 1012.69 1013.10 1013.52 1013.92 1014.28 1014.60 1014.86 1015.08 1015.26 1015.41 1015.54 1015.68 1015.83 1015.99 1016.18 1016.38 1016.60 1016.82 1017.03 1017.22 1017.40 1017.54 1017.66 1017.74 1017.79 1017.82
1016.34 1016.10 1015.80 1015.45 1015.05 1014.62 1014.16 1013.70 1013.25 1012.83 1012.46 1012.17 1011.97 1011.88 1011.89 1012.00 1012.21 1012.51 1012.86 1013.24 1013.64 1014.02 1014.38 1014.70 1014.97 1015.20 1015.40 1015.56 1015.71 1015.86 1016.01 1016.18 1016.36 1016.56 1016.77 1016.98 1017.20 1017.40 1017.59 1017.76 1017.91 1018.03 1018.12 1018.17
1016.56 1016.32 1016.02 1015.67 1015.28 1014.85 1014.41 1013.96 1013.52 1013.13 1012.78 1012.51 1012.32 1012.23 1012.24 1012.34 1012.53 1012.79 1013.10 1013.45 1013.82 1014.18 1014.52 1014.84 1015.12 1015.37 1015.59 1015.78 1015.96 1016.14 1016.31 1016.50 1016.70 1016.90 1017.12 1017.35 1017.57 1017.79 1018.00 1018.20 1018.37 1018.51 1018.62 1018.70
1016.73 1016.50 1016.22 1015.89 1015.51 1015.11 1014.69 1014.28 1013.88 1013.51 1013.20 1012.96 1012.79 1012.71 1012.71 1012.79 1012.95 1013.18 1013.45 1013.76 1014.09 1014.42 1014.74 1015.06 1015.34 1015.61 1015.86 1016.09 1016.31 1016.53 1016.74 1016.96 1017.19 1017.42 1017.66 1017.89 1018.13 1018.36 1018.59 1018.79 1018.97 1019.13 1019.25 1019.33
1016.84 1016.63 1016.37 1016.06 1015.72 1015.35 1014.98 1014.62 1014.27 1013.96 1013.69 1013.48 1013.34 1013.27 1013.27 1013.34 1013.48 1013.67 1013.90 1014.16 1014.45 1014.76 1015.06 1015.37 1015.67 1015.96 1016.23 1016.51 1016.77 1017.03 1017.29 1017.55 1017.81 1018.06 1018.32 1018.57 1018.81 1019.04 1019.26 1019.46 1019.63 1019.78 1019.89 1019.95
1016.87 1016.68 1016.44 1016.17 1015.87 1015.56 1015.24 1014.94 1014.66 1014.41 1014.20 1014.04 1013.94 1013.89 1013.90 1013.96 1014.08 1014.23 1014.43 1014.66 1014.92 1015.19 1015.48 1015.78 1016.08 1016.39 1016.69 1017.00 1017.30 1017.60 1017.90 1018.19 1018.48 1018.75 1019.02 1019.27 1019.51 1019.72 1019.92 1020.10 1020.25 1020.36 1020.44 1020.48
Thickness
5753 5764 5767 5771 5769 5763 5762 5756 5749 5759 5764 5786 5798 5805 5811 5813 5812 5810 5808 5807 5806 5803 5800 5797 5794 5791 5787 5784 5781 5777 5772 5767 5763 5759 5756 5752 5748 5745 5742 5739 5737 5734 5732 5730
5748 5758 5763 5765 5769 5766 5768 5766 5765 5770 5773 5796 5800 5803 5806 5808 5808 5807 5807 5808 5806 5803 5800 5796 5794 5790 5787 5783 5780 5776 5770 5765 5761 5757 5753 5749 5746 5743 5740 5736 5733 5731 5728 5726
5725 5746 5749 5742 5761 5765 5768 5772 5771 5768 5782 5793 5795 5798 5802 5805 5806 5808 5809 5808 5805 5803 5801 5798 5795 5792 5786 5783 5779 5773 5768 5763 5759 5754 5750 5746 5743 5739 5735 5732 5729 5726 5723 5721
5712 5725 5714 5744 5771 5773 5770 5773 5777 5780 5785 5789 5793 5798 5801 5804 5805 5806 5807 5806 5805 5803 5800 5797 5795 5791 5786 5781 5776 5770 5765 5761 5755 5751 5746 5742 5739 5735 5732 5729 5725 5721 5718 5716
5697 5703 5718 5745 5763 5765 5761 5762 5773 5774 5781 5785 5790 5793 5794 5801 5803 5804 5805 5805 5803 5801 5798 5794 5789 5786 5781 5775 5770 5765 5761 5757 5753 5748 5743 5738 5734 5731 5728 5724 5720 5717 5714 5711
5691 5697 5700 5731 5757 5766 5762 5748 5767 5769 5772 5776 5779 5770 5780 5794 5797 5798 5799 5799 5798 5796 5792 5787 5784 5780 5774 5768 5764 5759 5755 5752 5748 5744 5740 5735 5732 5728 5724 5720 5716 5713 5710 5707
5687 5693 5705 5731 5746 5755 5733 5739 5760 5763 5765 5768 5768 5771 5778 5785 5787 5788 5789 5789 5789 5787 5783 5778 5775 5772 5767 5761 5757 5754 5750 5746 5742 5738 5733 5729 5725 5722 5718 5714 5710 5706 5704 5702
5675 5683 5695 5725 5732 5730 5732 5746 5752 5755 5759 5760 5763 5767 5770 5773 5774 5775 5776 5776 5776 5775 5773 5768 5766 5763 5758 5752 5750 5747 5743 5738 5734 5732 5728 5723 5717 5713 5709 5706 5703 5699 5697 5695
5676 5682 5699 5710 5716 5724 5731 5736 5743 5746 5751 5753 5754 5756 5757 5759 5760 5762 5763 5763 5764 5763 5760 5758 5755 5752 5748 5744 5741 5737 5734 5729 5726 5723 5719 5716 5711 5705 5700 5697 5695 5693 5690 5688
5670 5681 5692 5701 5709 5716 5722 5727 5734 5739 5742 5744 5744 5745 5745 5746 5746 5748 5749 5749 5750 5750 5747 5744 5742 5740 5738 5735 5732 5726 5722 5719 5716 5713 5708 5705 5701 5696 5692 5689 5687 5685 5682 5680
5659 5671 5681 5691 5697 5703 5710 5717 5723 5727 5730 5731 5733 5732 5732 5732 5732 5732 5733 5733 5735 5733 5731 5729 5729 5727 5725 5724 5721 5716 5712 5710 5706 5702 5697 5692 5688 5685 5683 5680 5678 5676 5674 5671
5648 5660 5664 5673 5685 5693 5697 5703 5708 5711 5714 5717 5719 5719 5719 5718 5718 5718 5718 5718 5718 5717 5714 5713 5713 5713 5712 5710 5708 5704 5699 5697 5694 5690 5685 5681 5677 5673 5670 5668 5667 5666 5663 5661
5647 5655 5658 5667 5675 5681 5685 5690 5695 5699 5700 5702 5704 5706 5706 5705 5706 5706 5706 5705 5704 5703 5701 5699 5698 5699 5699 5697 5694 5691 5687 5684 5682 5678 5674 5670 5667 5665 5663 5659 5656 5654 5652 5650
5641 5646 5649 5657 5662 5669 5674 5678 5682 5684 5687 5690 5692 5693 5692 5692 5693 5694 5694 5693 5693 5691 5688 5685 5686 5686 5686 5684 5682 5680 5676 5674 5673 5670 5666 5662 5658 5656 5654 5652 5648 5645 5641 5638
5633 5637 5641 5647 5652 5657 5661 5664 5667 5670 5673 5676 5679 5680 5681 5681 5681 5681 5682 5682 5681 5679 5676 5674 5674 5673 5673 5672 5671 5668 5665 5663 5661 5659 5656 5653 5649 5645 5643 5640 5638 5634 5631 5627
5624 5629 5633 5637 5641 5645 5649 5652 5654 5657 5660 5663 5665 5667 5668 5669 5669 5670 5669 5670 5667 5665 5663 5662 5661 5660 5660 5659 5658 5656 5653 5652 5649 5646 5644 5640 5637 5634 5631 5628 5625 5622 5619 5616
5614 5617 5622 5626 5630 5634 5638 5642 5645 5648 5651 5652 5653 5654 5655 5655 5655 5656 5656 5656 5654 5652 5650 5649 5649 5649 5648 5646 5645 5643 5641 5639 5637 5634 5631 5628 5625 5622 5619 5616 5613 5611 5608 5604
5608 5612 5616 5619 5622 5625 5628 5633 5638 5640 5643 5644 5644 5643 5643 5643 5643 5643 5642 5641 5640 5639 5638 5637 5637 5637 5636 5635 5633 5631 5629 5627 5624 5621 5618 5616 5613 5610 5607 5604 5602 5599 5596 5593
5602 5605 5609 5612 5616 5618 5621 5625 5628 5631 5634 5634 5634 5633 5633 5632 5631 5630 5629 5630 5629 5628 5627 5626 5626 5626 5626 5624 5622 5619 5617 5614 5612 5609 5606 5603 5600 5598 5595 5592 5590 5587 5584 5582
5594 5598 5602 5605 5609 5612 5614 5617 5619 5621 5623 5624 5624 5623 5622 5621 5620 5619 5618 5618 5618 5618 5617 5616 5615 5614 5613 5612 5611 5608 5605 5602 5600 5597 5594 5591 5589 5586 5583 5581 5578 5576 5573 5570
5587 5591 5595 5598 5601 5604 5606 5608 5610 5611 5613 5614 5614 5614 5613 5612 5611 5609 5608 5607 5607 5607 5606 5605 5604 5603 5602 5600 5599 5596 5593 5590 5587 5584 5582 5579 5577 5574 5572 5569 5567 5564 5562 5559
5579 5583 5587 5590 5592 5594 5597 5599 5601 5603 5604 5604 5605 5604 5603 5601 5600 5599 5599 5598 5598 5597 5596 5595 5594 5592 5591 5589 5587 5584 5581 5579 5575 5572 5569 5567 5565 5562 5560 5557 5555 5552 5550 5547
5572 5576 5579 5581 5583 5586 5589 5591 5593 5594 5595 5596 5596 5595 5594 5593 5592 5591 5589 5588 5588 5587 5586 5584 5583 5581 5579 5577 5575 5573 5570 5567 5564 5561 5558 5556 5553 5551 5548 5546 5543 5540 5538 5535
5567 5570 5572 5574 5577 5579 5580 5582 5584 5585 5586 5587 5587 5587 5586 5584 5582 5581 5581 5579 5578 5577 5575 5572 5571 5570 5568 5566 5564 5561 5559 5556 5554 5551 5548 5545 5542 5539 5537 5534 5532 5529 5526 5524
5563 5565 5567 5569 5570 5571 5572 5574 5575 5576 5576 5577 5577 5577 5577 5576 5574 5572 5571 5569 5567 5566 5563 5561 5559 5558 5556 5554 5552 5549 5547 5544 5542 5539 5537 5534 5531 5528 5525 5523 5520 5517 5515 5512
5558 5560 5562 5563 5564 5566 5567 5568 5568 5568 5568 5568 5567 5567 5566 5565 5565 5563 5561 5559 5557 5555 5553 5550 5548 5547 5545 5543 5540 5538 5535 5532 5530 5527 5525 5522 5519 5517 5514 5511 5508 5505 5503 5500
5555 5556 5557 5558 5559 5560 5561 5562 5562 5561 5561 5561 5559 5558 5558 5556 5555 5554 5552 5550 5548 5545 5542 5540 5538 5536 5535 5532 5530 5527 5524 5521 5518 5515 5513 5510 5507 5504 5502 5499 5496 5493 5491 5488